User: anonymous   Login
Location: Petruro
(41.0333°N, 14.7833°E)
Time: 20:16:03
(UTC+00:00)
Language:

PSLV DEB - Orbit

View from above orbital plane
View from above orbital plane
View from above satellite
View from above satellite

Ground track
Ground track

The orbit data is extracted from the following two-line orbital elements,

1 27129U 01049BZ  22024.62573750  .00004008  00000-0  39182-3 0  9998
2 27129  97.9479  46.1693 0035423 269.1767 216.9186 14.92476185 81731
Epoch (UTC): 24 January 2022 15:01:03
Eccentricity: 0.0035423
inclination: 97.9479°
perigee height: 565 km
apogee height: 615 km
right ascension of ascending node: 46.1693°
argument of perigee: 269.1767°
revolutions per day: 14.92476185
mean anomaly at epoch: 216.9186°
orbit number at epoch: 8173

The dashed part of the orbit path shows where the satellite is in the earth's shadow,  

DLR